DELTA 1 DEB, 10252

Orbit data source: Space-Track

DELTA 1 DEB, 10252 is space debris in LEO originally from a launch on Thu, 14 Jul 1977 UTC launched from the Air Force Eastern Test Range (AFETR). Debris objects in space refer to the collection of defunct objects orbiting the Earth. Examples of debris include non-operational satellites, rocket bodies, and fragments generated from explosions, collisions, or faulty payload assembly.

Loading next visibility...
Identifier
10252, 1977-065CD
Orbit
LEO
Country
Flag of USUS
Related business
Manufacturer
Unknown
Mission
Spacecraft
Bus & Motor
Unknown
Mass
Unknown
Launch date (UTC)
1977-07-14 (48 years ago)
Launch vehicle
Unknown
Launch site
Air Force Eastern Test Range (AFETR)
Object type
Payload
Rocket body
Debris
Shape & HBR
Unknown shape, 0.2 m
Radar Cross Section
Small (<0.1 m²)

Expand to show TLE details & history
Last TLE update: 17 hours ago

TLE from 17 hours ago
0 DELTA 1 DEB
1 10252U 77065CD  25350.32140742  .00001276  00000-0  52769-3 0  9991
2 10252  28.8442 345.9065 0757073  40.5329 324.9183 13.27433412315520
Epoch: 2025-12-16T07:42Z
TLE epoch observation values (Epoch: 2025-12-16T07:42:49.601Z)
Latitude
0.00003°
Longitude
144.99259°
Altitude
703.876 km
Speed
7.727 km/s
True Right ascension
23h 03m 37s
True Declination
0° 00' 00"
Sunlit
Object was in daylight at epoch
Visualization orbit readout
Latitude
Unknown
Longitude
Unknown
Altitude
Unknown
Speed
Unknown
Apparent Right ascension
Unknown
Apparent Declination
Unknown
Sunlit
N/A
Visualization observer readout
Local Sidereal Time
23:02:12
Azimuth
Unknown
Elevation
Unknown
Doppler factor
Unknown
Orbital elements
Apogee altitude
1,731.018 km
Perigee altitude
589.588 km
Semi-major axis
7,538.44 km
Eccentricity
0.07571
Inclination
28.8442°
RAAN
345.9065°
Arg. of periapsis
40.5329°
True anomaly
319.52322°
Mean anomaly
324.9183°
Eccentric anomaly
322.26349°
Mean motion
3.31605 °/min
Orbital period
108.56 mins
BSTAR
0.00052769
Loading maneuver chart data...
Computing Atmospheric mass density...
Loading historical data...
Loading historical data...
Loading historical data...
Loading historical data...
Loading historical data...
Loading historical data...
Loading historical data...

Documentation

Showing up to 5 results
|